Regional Weather Roundup
Issued by NWS Charleston, SC

Current Version | Previous Version | Text Only | Print | Product List | Glossary Off
Versions: 1 2 3 4 5 6 7 8 9 10 11 12 13 14 15 16 17 18 19 20 21 22 23 24 25 26 27 28 29 30 31 32 33 34 35 36 37 38 39 40 41 42 43 44 45 46 47 48 49 50
000 ASUS42 KCHS 190038 RWRCHS REGIONAL WEATHER ROUNDUP NATIONAL WEATHER SERVICE CHARLESTON SC 800 PM EDT MON SEP 18 2017 NOTE: "FAIR" INDICATES FEW OR NO CLOUDS BELOW 12,000 FEET WITH NO SIGNIFICANT WEATHER AND/OR OBSTRUCTIONS TO VISIBILITY. NOT ALL STATIONS ARE QUALITY CONTROLLED. USE DATA WITH CAUTION... ESPECIALLY DEWPOINT OBSERVATIONS. SCZ027-030-031-034>040-042>050-190100- ...SOUTHEAST SOUTH CAROLINA... CITY SKY/WX TMP DP RH WIND PRES REMARKS N CHARLESTON PTCLDY 77 71 82 SE6 29.95S 6HR MIN TEMP: 77; 6HR MAX TEMP: 87; WATERFRONT PRK N/A 77 73 87 VRB3 29.79S JOHNS ISLAND FAIR 75 73 94 CALM 29.96S PINOPOLIS N/A 79 72 78 CALM 29.89S MONCKS CORNER FAIR 72 68 88 CALM 29.96R SUMMERVILLE FAIR 73 70 88 CALM 29.97R BEAUFORT MCAS CLEAR 80 70 71 CALM 29.96R 6HR MIN TEMP: 80; 6HR MAX TEMP: 90; BEAUFORT ARPT FAIR 79 68 69 CALM 29.96R HILTON HEAD IS CLEAR 79 68 69 CALM 29.97R WALTERBORO CLEAR 73 70 88 CALM 29.97S ALLENDALE NOT AVBL ...SOUTHERN MIDLANDS AND PEE DEE... CITY SKY/WX TMP DP RH WIND PRES REMARKS GEORGETOWN FAIR 72 72 100 CALM 29.96R KINGSTREE FAIR 70 68 94 CALM 29.96R ORANGEBURG CLEAR 78 67 68 CALM 29.96S 6HR MIN TEMP: 77; 6HR MAX TEMP: 88; BARNWELL FAIR 79 72 78 CALM 29.97R AIKEN FAIR 73 66 78 CALM 30.01S MANNING FAIR 72 64 78 CALM 29.96S COLUMBIA PTCLDY 84 66 54 CALM 29.96R 6HR MIN TEMP: 84; 6HR MAX TEMP: 90; SUMTER CLEAR 78 65 65 NE5 29.94R 6HR MIN TEMP: 78; 6HR MAX TEMP: 88; FLORENCE CLEAR 75 68 78 CALM 29.96R 6HR MIN TEMP: 74; 6HR MAX TEMP: 86; MYRTLE BEACH CLEAR 75 69 81 CALM 29.95R N MYRTLE BEACH CLEAR 75 70 84 CALM 29.93S 6HR MIN TEMP: 75; 6HR MAX TEMP: 85; $$ GAZ063-065-086>088-099>101-113>116-118-119-134>141-150-190100- ...SOUTHEAST GEORGIA... CITY SKY/WX TMP DP RH WIND PRES REMARKS SAVANNAH ARPT PTCLDY 82 66 58 NE3 29.96R 6HR MIN TEMP: 82; 6HR MAX TEMP: 90; HUNTER AAF PTCLDY 82 66 58 CALM 29.93S 6HR MIN TEMP: 82; 6HR MAX TEMP: 89; FORT STEWART CLEAR 79 69 72 CALM 29.94R 6HR MIN TEMP: 79; 6HR MAX TEMP: 89; STATESBORO PTCLDY 76 68 75 CALM 29.96S SYLVANIA PTCLDY 75 72 89 CALM 29.98R CLAXTON FAIR 76 73 88 CALM 29.96S ...CSRA...CENTRAL AND FAR SOUTHEAST GEORGIA... CITY SKY/WX TMP DP RH WIND PRES REMARKS THOMSON CLOUDY 76 70 82 CALM 30.02S AUGUSTA-BUSH PTCLDY 77 72 84 CALM 29.95S 6HR MIN TEMP: 77; 6HR MAX TEMP: 93; AUGUSTA-DANIEL CLEAR 85 65 51 N3 29.97S SWAINSBORO FAIR 77 70 78 CALM 29.98S VIDALIA CLEAR 79 70 73 CALM 29.97S EASTMAN FAIR 78 64 61 CALM 29.99S HAZLEHURST FAIR 78 63 60 CALM 29.96R ALMA CLEAR 76 68 76 CALM 29.96S 6HR MIN TEMP: 76; 6HR MAX TEMP: 91; WAYCROSS CLEAR 78 69 75 CALM 29.96S JESUP NOT AVBL BAXLEY FAIR 75 70 83 CALM 29.96S BRUNSWICK CLEAR 79 68 69 CALM 29.97S SAINT SIMONS CLEAR 80 70 71 E6 29.96R 6HR MIN TEMP: 80; 6HR MAX TEMP: 88; $$ SCZ027-028-034-036>038-045-046-048>050-GAZ119-141-190100- ...LAKE AND SUPPLEMENTAL COASTAL OBSERVATIONS... STATION/POSITION TIME TEMP WIND PRES WAVE SWELL AIR SEA DIR/SP/G HT/PER HT/PER/DIR (UTC) (F) (DEG/KT/KT) (MB) (FT/S) (FT/S/D) WINYAH BAY 2330 77 170/ 3 1014.0S LAKE MURRAY 2350 81 CALM 1013.9R ACE BASIN NERRS 2345 77 CALM 1015.0R FORT PULASKI 0000 80 80 CALM / 2 1014.8 SAPELO ISLAND 0000 79 CALM 1014.0 $$ ANZ835-935-AMZ111-154-330-350-352-354-370-450-454-472-190100- ...C-MAN AND BUOY OBSERVATIONS... STATION/POSITION TIME TEMP WIND PRES WAVE SWELL AIR SEA DIR/SP/G HT/PER HT/PER/DIR (UTC) (F) (DEG/KT/KT) (MB) (FT/S) (FT/S/D) BUOY 41004 0010 78 83 30/ 6/ 8 1013.5 BUOY 41008 2350 80 80 130/ 6/ 8 1014.0R 4/12 5/ 80/12 FOLLY BEACH CMAN 0000 77 160/ 5/ 6 1015.2R CAPERS NEARSHORE 2308 76 79 140/ 4/ 8 1014.0R FRIPP NEARSHORE 0008 79 160/ 6/ 8 1018.9R STATION/POSITION TIME TEMP WIND PRES WAVE SWELL AIR SEA DIR/SP/G HT/PER HT/PER/DIR (UTC) (F) (DEG/KT/KT) (MB) (FT/S) (FT/S/D) 5E ST. MARYS GA 0000 81 N/A 4/13 3/ 80/13 FRYING PAN BUOY 0010 80 82 340/ 14/ 17 1012.7 BUOY 41025 2350 76 82 350/ 27/ 33 1009.3R 11/11 8/110/11 CAPE LOOKOUT NC 0000 76 360/ 16/ 19 1012.2R BUOY 41002 2350 80 80 330/ 17/ 19 1009.8R 13/12 11/ 60/12 BUOY 41010 0010 83 360/ 12/ 16 1013.2 ST AUGUSTINE FL 0000 79 83 30/ 13/ 14 1014.8R $$

USA.gov is the U.S. government's official web portal to all federal, state and local government web resources and services.